Temperature
24 23 23 23 22 22 21 21 21 20 20 19 19 19 19 18 18 18 18 18 18 18 18 18 18 18 18 18 18 17 17 17 17 17 17 17 17 17 17 17 17 17 17
23 23 23 23 22 22 22 21 21 20 20 20 19 19 19 18 18 18 18 18 18 18 18 18 18 18 18 18 17 17 17 17 17 17 17 17 17 17 17 17 17 17 17
24 23 23 23 22 22 22 21 21 20 20 20 19 19 18 18 18 18 18 18 18 18 18 18 18 18 18 18 17 17 17 17 17 17 17 17 17 17 17 17 17 17 17
24 24 23 23 23 22 22 21 21 20 20 20 19 19 19 19 19 18 18 18 18 18 18 18 18 18 18 18 18 18 17 17 17 17 17 17 17 17 16 17 17 17 17
24 24 24 23 23 22 22 21 21 20 20 20 19 19 19 19 19 18 18 18 18 18 18 18 18 18 18 18 18 18 17 17 17 17 17 17 17 17 16 16 17 17 17
24 24 24 23 23 22 22 21 20 20 20 20 19 19 19 19 19 18 18 18 18 18 18 18 18 18 18 18 18 17 17 17 17 17 17 17 17 17 16 16 16 16 17
24 24 24 23 23 22 22 21 20 20 20 19 19 19 19 19 19 19 18 18 18 18 18 18 18 18 18 18 17 17 17 17 17 17 17 17 17 16 16 16 16 16 16
24 24 24 24 23 22 22 21 21 20 20 20 19 19 19 19 19 19 19 18 18 18 18 18 18 18 18 18 17 17 17 17 17 17 17 16 16 16 16 16 16 16 15
25 24 24 24 23 23 22 22 21 21 20 20 20 19 19 19 19 19 18 18 18 18 18 18 18 18 18 17 17 17 17 17 17 17 16 16 16 16 16 16 16 16 15
25 24 24 24 23 23 22 22 21 21 20 20 19 19 19 19 19 19 18 18 18 18 18 18 18 18 18 17 17 17 17 17 16 16 16 16 16 16 16 16 16 16 16
25 24 24 24 23 23 22 22 21 21 20 20 19 19 19 19 19 18 18 18 18 18 18 18 18 17 17 17 17 17 17 16 16 16 16 16 16 16 16 16 16 16 15
24 24 24 24 23 23 22 22 21 20 20 20 19 19 19 19 19 18 18 18 18 18 18 18 18 17 17 17 17 17 16 16 16 16 15 15 15 15 15 15 15 15 15
24 24 24 23 23 23 22 22 21 21 20 20 19 19 19 19 18 18 18 18 18 18 18 17 17 17 17 17 17 16 16 16 16 15 15 15 15 15 15 15 15 15 14
24 24 24 23 23 22 22 22 21 21 20 20 20 19 19 19 18 18 18 18 18 18 17 17 17 17 17 17 17 16 16 16 15 15 15 15 15 15 15 14 14 14 14
23 23 23 23 23 22 22 21 21 21 20 20 20 19 19 19 18 18 18 18 18 17 17 17 17 17 17 16 16 16 16 16 15 15 15 14 14 14 14 14 14 14 14
23 23 23 23 22 22 22 21 21 21 20 20 20 19 19 19 18 18 18 17 17 17 17 17 17 16 16 16 16 16 16 15 15 15 15 14 14 14 14 14 14 13 13
23 22 23 23 22 22 22 21 21 20 20 20 19 19 19 18 18 18 17 17 17 17 16 16 16 16 16 16 16 15 15 15 15 15 14 14 14 14 14 14 13 13 13
23 23 23 22 22 22 22 21 21 20 20 19 19 19 19 18 18 17 17 17 16 16 16 16 16 16 15 15 15 15 15 15 15 14 14 14 14 14 13 13 13 13 12
23 23 23 22 22 22 21 21 20 20 20 19 19 19 18 18 18 17 17 17 16 16 16 16 15 15 15 15 15 14 14 14 14 14 14 13 13 13 13 13 13 12 12
23 23 22 22 22 22 21 21 20 20 19 19 19 19 18 18 18 17 17 16 16 16 15 15 15 15 15 14 14 14 14 14 14 13 13 13 13 12 12 12 12 12 12
22 22 22 22 21 21 21 20 20 20 19 19 18 18 18 17 17 17 16 16 16 15 15 15 14 14 14 14 14 14 14 13 13 13 13 12 12 12 12 12 12 11 11
22 21 21 21 21 21 20 20 20 19 19 18 18 17 17 17 16 16 16 16 15 15 15 14 14 14 14 14 14 13 13 13 12 12 12 12 12 11 11 11 11 11 11
21 21 21 20 20 20 20 19 19 18 18 18 17 17 17 16 16 16 15 15 15 15 14 14 14 14 14 13 13 13 13 12 12 12 12 11 11 11 11 11 10 10 10
20 20 20 19 19 19 19 19 18 18 17 17 17 16 16 16 15 15 15 15 15 14 14 14 14 14 13 13 13 12 12 12 12 11 11 11 11 11 11 10 10 10 10
18 19 19 18 18 18 18 18 17 17 17 17 16 16 16 15 15 15 14 14 14 14 14 14 14 13 13 13 12 12 12 12 11 11 11 11 10 10 10 10 10 10 9
17 17 17 17 17 17 17 17 16 16 16 16 16 15 15 15 15 14 14 14 13 13 13 13 13 13 13 12 12 12 11 11 11 11 11 10 10 10 10 10 9 9 9
Wind_Speed
10 11 12 12 12 10 10 10 9 8 6 4 4 3 3 2 2 4 7 8 8 8 6 3 3 3 3 3 3 2 2 1 1 1 1 2 1 1 2 2 3 4 7
10 11 10 11 12 12 10 10 9 9 7 5 4 3 3 3 3 2 4 6 7 7 6 4 3 3 2 2 3 3 2 1 2 2 1 1 3 2 1 1 2 3 3
15 14 12 12 12 12 12 11 9 8 8 6 4 3 2 1 1 1 2 3 6 6 5 5 4 3 3 3 3 3 4 3 2 3 3 2 3 2 2 1 1 1 1
14 13 13 13 14 13 11 10 9 8 8 7 6 6 4 3 3 3 3 3 4 5 6 5 5 3 3 3 3 3 3 3 2 2 2 3 4 2 1 2 1 1 1
16 15 14 14 13 12 11 10 9 8 8 7 8 6 4 4 3 2 3 3 2 3 4 5 4 3 3 3 3 3 3 3 3 3 2 2 2 3 3 3 2 1 1
13 12 11 10 9 10 9 9 9 8 8 8 7 7 7 6 5 4 4 3 2 2 3 4 4 3 3 3 4 3 3 4 3 3 3 3 2 3 3 3 3 2 2
12 12 12 11 10 11 11 10 10 8 8 8 8 8 8 7 7 5 4 4 2 2 3 3 3 3 3 3 3 3 3 4 4 4 3 3 4 3 3 3 3 2 2
11 13 14 14 13 12 11 11 10 9 8 8 8 7 7 6 5 5 4 4 3 3 3 3 3 3 3 3 2 2 3 3 4 4 3 3 3 2 3 3 3 2 2
12 12 12 12 12 12 11 11 11 9 8 8 8 7 7 6 6 5 4 4 3 3 3 3 3 2 2 2 2 2 3 2 3 3 3 2 2 2 3 3 4 4 3
11 11 11 12 11 11 10 10 10 10 8 8 8 8 7 6 6 5 5 4 3 3 3 3 2 2 1 1 1 1 1 1 1 2 1 2 2 1 1 2 2 2 3
12 11 11 11 11 10 10 10 10 8 8 8 7 7 6 6 5 5 5 4 3 3 3 3 2 2 1 0 1 1 1 1 1 1 1 1 1 0 0 1 1 2 2
9 10 10 10 10 10 10 10 9 9 8 8 7 7 6 6 5 5 4 4 4 3 3 3 3 2 1 0 1 1 0 1 1 1 0 1 0 0 1 1 1 1 2
7 7 8 9 10 10 10 10 10 9 8 8 8 7 6 6 5 5 4 4 4 3 3 3 3 2 1 1 1 1 1 1 1 1 1 1 1 1 1 1 1 1 1
7 8 9 9 9 9 9 9 8 8 9 8 8 7 7 6 6 5 5 5 4 4 3 3 3 2 2 1 1 1 1 1 0 0 1 1 1 2 2 1 1 1 2
7 8 9 8 8 8 8 8 8 8 9 9 8 7 6 6 5 5 5 4 4 4 4 3 2 2 2 1 1 1 2 1 1 1 1 1 2 2 2 2 2 2 2
9 9 8 8 8 9 9 9 9 9 9 9 8 8 7 7 6 6 5 5 4 3 4 3 3 2 1 1 2 3 2 1 1 1 1 1 2 2 2 2 3 3 3
8 8 8 8 8 8 10 11 10 9 9 9 8 8 8 7 7 6 6 5 4 3 3 3 3 2 1 1 2 3 3 2 2 2 2 2 2 2 1 2 3 2 2
8 8 8 8 7 7 7 8 9 10 10 9 9 8 8 7 6 6 5 4 4 3 3 3 3 2 1 2 3 3 3 3 2 2 2 2 1 1 2 3 3 2 1
7 7 7 7 7 7 8 8 9 9 9 9 9 8 8 8 7 6 5 4 4 3 3 3 3 3 1 2 3 4 2 2 2 2 2 3 2 1 3 4 3 2 2
6 6 6 6 7 6 8 9 8 8 9 8 8 8 8 8 8 7 5 4 4 4 3 3 2 3 2 2 3 4 3 2 2 2 2 3 3 3 4 4 3 2 1
5 6 7 7 7 7 9 9 8 8 7 7 7 6 6 6 6 5 4 4 4 4 3 3 2 2 2 2 3 4 3 3 2 1 1 1 3 4 4 4 2 2 1
6 7 7 6 5 7 9 8 7 6 7 8 8 7 6 5 5 5 5 4 5 4 3 2 2 1 1 2 2 4 4 3 3 2 1 0 3 4 4 3 2 2 2
6 6 7 6 5 6 8 8 6 7 8 8 8 7 6 4 4 5 5 4 4 4 3 3 2 1 0 0 1 3 4 4 2 1 2 2 2 3 2 1 2 3 2
6 6 8 7 5 4 5 6 7 8 9 9 7 7 7 5 4 4 4 4 3 4 4 3 3 2 1 0 1 1 2 3 2 1 1 2 2 3 2 2 1 1 1
5 6 7 7 6 5 6 6 7 9 9 8 7 6 6 6 5 4 3 3 3 4 5 4 4 4 3 3 4 4 3 3 2 3 2 2 2 1 1 1 1 1 1
5 6 6 6 5 5 5 4 6 8 9 8 6 5 5 5 5 4 2 3 2 2 3 4 4 3 4 5 6 5 5 5 6 5 2 1 1 1 2 2 1 1 1
Wind_Direction
185 176 172 164 162 162 161 162 162 170 162 157 157 157 173 185 185 187 189 186 186 182 175 173 172 169 175 190 179 165 171 210 168 92 355 341 304 245 232 207 191 200 208
176 175 173 168 170 171 169 167 169 172 174 175 168 165 166 188 190 192 190 194 189 187 183 174 180 181 177 187 185 166 169 213 169 149 124 335 339 339 267 201 189 208 200
180 181 179 177 172 175 176 177 176 173 175 169 150 140 121 107 126 173 187 200 185 181 176 175 174 184 181 194 199 185 177 200 220 174 160 172 227 289 315 263 201 198 201
180 183 182 178 179 181 177 174 174 173 174 167 166 165 172 184 202 190 190 201 191 189 183 180 180 185 189 193 203 192 188 182 212 226 202 194 181 190 274 320 289 233 242
181 184 184 182 180 177 175 173 172 175 177 176 177 174 180 191 188 171 179 196 205 199 190 184 183 188 198 200 206 200 191 190 200 205 208 218 214 191 197 253 281 305 263
179 179 175 164 167 168 168 168 170 179 180 177 178 179 181 181 175 177 180 189 197 207 204 191 192 201 207 207 206 205 200 209 205 206 203 197 201 205 196 220 241 259 273
169 167 164 163 167 170 170 170 171 180 181 180 185 189 188 184 185 185 183 180 182 195 212 202 197 206 212 209 202 205 214 210 208 212 220 217 221 203 192 194 225 247 271
169 172 172 170 172 175 174 173 177 182 183 185 190 191 187 188 192 189 183 185 195 204 204 195 191 203 208 211 207 214 222 219 220 228 222 227 236 211 191 188 189 222 270
174 175 173 172 172 174 178 176 178 182 185 188 187 190 190 187 184 181 180 184 192 191 180 183 185 194 197 207 202 224 235 227 224 227 227 234 244 219 211 190 179 182 213
175 175 175 175 175 176 178 176 180 183 186 187 189 191 190 189 183 178 183 184 179 172 159 169 173 176 196 204 187 222 227 201 233 216 210 244 251 225 191 183 188 183 186
177 175 175 175 172 171 175 177 180 181 184 186 184 178 178 179 176 176 182 175 165 155 154 162 147 125 120 151 154 187 163 178 244 247 209 255 261 69 200 178 177 171 154
175 173 168 166 168 170 173 176 177 178 180 176 167 167 166 163 165 173 176 164 159 163 160 141 134 138 132 200 183 203 185 189 239 260 219 248 272 332 184 153 156 164 155
170 164 157 163 170 172 172 172 175 175 169 162 158 157 158 159 164 165 157 149 151 146 134 130 131 134 136 141 182 180 166 178 205 218 186 209 155 187 172 143 162 178 161
170 170 168 173 173 171 168 165 168 168 160 154 152 156 161 161 161 156 151 147 142 135 136 136 137 138 130 119 110 137 135 108 133 148 164 171 164 173 176 165 166 153 136
167 173 175 172 167 162 161 165 168 168 161 155 157 163 160 153 148 149 149 142 136 139 138 134 128 122 122 125 137 145 138 127 88 46 94 128 119 120 145 149 160 150 146
181 175 164 159 164 167 167 168 172 170 159 158 163 162 156 151 148 148 144 139 136 135 131 133 134 123 140 145 130 137 138 133 129 92 50 90 91 91 114 141 153 156 160
184 171 165 164 167 172 172 173 169 163 159 162 166 163 160 159 160 155 149 147 143 134 130 134 131 131 115 84 94 112 126 120 119 113 96 83 67 86 108 94 88 101 141
180 172 167 165 168 173 168 163 158 161 165 166 167 164 160 158 156 153 156 156 149 148 147 143 141 134 92 83 86 103 108 98 96 104 113 105 57 61 107 105 84 61 44
177 175 169 162 163 164 159 153 158 161 164 166 166 166 162 158 157 161 165 160 153 152 155 153 149 140 99 78 101 115 106 99 91 98 95 102 85 68 109 108 100 67 27
165 161 154 142 148 158 153 148 155 158 167 171 166 161 162 160 162 165 166 157 150 154 149 145 149 146 140 108 107 124 122 111 85 63 67 77 84 83 109 114 115 106 50
144 142 139 145 155 154 146 149 154 168 169 154 147 146 151 152 151 152 151 145 141 137 140 144 144 143 143 132 119 130 145 146 126 99 60 28 70 89 102 108 120 157 139
122 131 129 137 147 143 142 148 160 160 141 136 139 137 136 143 150 144 142 138 141 145 147 138 126 118 145 142 141 130 128 135 139 153 188 88 82 81 95 103 91 96 94
113 119 121 119 119 134 139 145 153 143 138 136 141 143 135 139 155 153 149 143 146 152 154 147 154 177 153 70 107 123 123 119 132 154 147 129 104 90 82 84 96 102 100
112 111 112 114 111 119 126 137 141 140 139 137 144 147 144 151 155 145 149 154 163 167 169 175 177 177 164 129 93 105 111 105 97 85 94 95 81 81 61 35 33 59 137
112 120 122 123 123 118 118 125 137 141 142 145 152 155 152 156 151 144 154 169 183 182 176 189 181 173 190 211 179 159 153 159 161 124 85 67 59 45 15 359 347 345 4
127 120 118 120 120 118 120 129 142 146 145 147 157 162 162 160 157 148 116 62 116 136 167 173 168 182 186 176 171 173 174 170 153 129 126 161 185 211 228 236 266 266 256
Height
1534 1536 1539 1540 1543 1544 1546 1547 1549 1550 1552 1553 1554 1555 1556 1557 1558 1559 1560 1561 1561 1562 1562 1563 1564 1564 1565 1565 1566 1566 1567 1567 1568 1568 1568 1568 1569 1569 1569 1569 1569 1570 1570
1532 1534 1536 1539 1540 1542 1544 1546 1547 1549 1550 1552 1553 1554 1555 1556 1557 1558 1558 1559 1560 1560 1561 1562 1562 1563 1563 1564 1564 1564 1565 1565 1566 1567 1566 1566 1567 1566 1567 1567 1567 1567 1567
1528 1531 1534 1536 1538 1540 1542 1544 1545 1547 1549 1550 1552 1553 1554 1554 1555 1556 1556 1557 1558 1559 1559 1560 1561 1561 1562 1562 1562 1562 1562 1563 1564 1564 1565 1565 1564 1564 1564 1564 1564 1564 1565
1526 1529 1531 1534 1536 1538 1541 1543 1544 1546 1547 1549 1550 1551 1551 1552 1553 1554 1555 1556 1557 1557 1558 1558 1559 1559 1559 1560 1560 1560 1560 1561 1561 1562 1562 1563 1562 1563 1562 1562 1562 1562 1562
1523 1526 1529 1531 1534 1537 1539 1541 1543 1545 1546 1547 1548 1549 1550 1551 1552 1552 1553 1554 1555 1555 1556 1556 1557 1557 1557 1557 1558 1558 1558 1558 1558 1559 1559 1559 1560 1560 1560 1559 1559 1559 1560
1522 1525 1528 1531 1534 1536 1538 1540 1541 1542 1544 1545 1546 1547 1548 1549 1550 1550 1551 1552 1553 1553 1554 1555 1555 1555 1555 1555 1555 1555 1555 1555 1556 1556 1556 1556 1557 1556 1556 1556 1556 1556 1557
1519 1522 1525 1529 1532 1534 1536 1538 1539 1541 1542 1543 1544 1546 1547 1547 1548 1549 1549 1550 1551 1551 1552 1553 1553 1553 1553 1553 1553 1553 1553 1553 1553 1553 1553 1553 1553 1554 1554 1554 1553 1553 1553
1517 1520 1523 1525 1529 1531 1534 1535 1537 1538 1540 1541 1542 1543 1545 1546 1547 1547 1548 1549 1549 1550 1550 1551 1551 1551 1550 1550 1550 1550 1550 1550 1550 1549 1550 1550 1550 1550 1550 1550 1551 1550 1550
1515 1518 1521 1524 1526 1529 1531 1533 1535 1536 1537 1538 1539 1541 1542 1544 1545 1546 1546 1547 1548 1548 1548 1549 1549 1549 1548 1548 1547 1547 1547 1546 1546 1546 1546 1546 1546 1547 1547 1547 1547 1548 1547
1514 1517 1519 1522 1524 1527 1529 1531 1533 1534 1535 1536 1537 1538 1540 1541 1543 1544 1544 1545 1546 1546 1546 1547 1547 1546 1546 1545 1544 1544 1543 1543 1543 1543 1543 1543 1543 1543 1543 1543 1544 1544 1544
1512 1515 1517 1520 1522 1525 1527 1529 1531 1532 1532 1533 1535 1536 1537 1539 1540 1541 1542 1543 1544 1544 1545 1545 1545 1544 1543 1542 1542 1541 1540 1540 1540 1540 1539 1539 1540 1540 1540 1540 1541 1541 1541
1510 1512 1516 1519 1521 1523 1525 1527 1528 1529 1530 1532 1533 1534 1536 1537 1538 1539 1540 1541 1542 1543 1543 1543 1543 1542 1541 1540 1539 1538 1537 1537 1537 1536 1536 1536 1536 1536 1537 1537 1537 1538 1538
1509 1512 1514 1517 1519 1521 1523 1525 1526 1527 1529 1530 1532 1533 1535 1536 1537 1538 1538 1539 1540 1541 1541 1541 1541 1540 1539 1538 1537 1536 1535 1535 1534 1534 1533 1533 1533 1533 1533 1534 1534 1534 1535
1508 1510 1513 1515 1517 1519 1522 1524 1525 1526 1528 1529 1531 1532 1534 1535 1535 1536 1537 1538 1539 1539 1539 1539 1539 1539 1538 1537 1535 1534 1534 1533 1532 1532 1531 1531 1531 1530 1531 1531 1531 1531 1532
1507 1509 1511 1513 1515 1518 1520 1522 1524 1525 1526 1528 1529 1531 1532 1534 1534 1535 1536 1536 1537 1537 1538 1538 1537 1537 1536 1535 1534 1533 1532 1531 1530 1530 1529 1529 1529 1528 1529 1529 1529 1529 1529
1505 1507 1509 1511 1514 1516 1518 1520 1521 1523 1525 1526 1528 1529 1531 1532 1533 1534 1534 1534 1535 1535 1535 1535 1535 1535 1534 1533 1532 1532 1531 1530 1529 1529 1528 1528 1527 1527 1527 1527 1527 1527 1527
1502 1504 1506 1508 1511 1513 1516 1517 1520 1521 1523 1525 1527 1528 1529 1530 1531 1532 1532 1532 1533 1533 1533 1533 1533 1532 1532 1531 1531 1530 1529 1528 1528 1527 1527 1526 1526 1526 1525 1525 1525 1525 1525
1500 1503 1505 1507 1509 1511 1514 1516 1518 1519 1521 1522 1524 1526 1527 1528 1529 1530 1530 1530 1530 1531 1531 1530 1530 1530 1529 1529 1529 1529 1528 1527 1527 1526 1526 1525 1525 1524 1524 1523 1523 1523 1523
1498 1501 1503 1505 1508 1510 1512 1514 1516 1517 1519 1520 1522 1523 1525 1526 1527 1528 1528 1528 1528 1528 1528 1528 1528 1527 1527 1527 1527 1526 1526 1525 1525 1525 1524 1524 1523 1523 1523 1522 1522 1522 1522
1497 1499 1501 1503 1505 1507 1510 1512 1514 1515 1516 1518 1520 1521 1523 1524 1524 1525 1526 1526 1526 1526 1526 1526 1525 1525 1525 1525 1525 1525 1524 1524 1523 1523 1523 1523 1523 1523 1522 1521 1521 1520 1520
1495 1497 1499 1501 1503 1505 1508 1509 1511 1513 1515 1517 1518 1519 1521 1522 1522 1523 1523 1524 1524 1524 1524 1524 1523 1523 1523 1523 1522 1523 1522 1522 1522 1522 1522 1522 1522 1522 1521 1521 1520 1520 1520
1493 1495 1497 1498 1501 1503 1505 1506 1508 1511 1513 1515 1516 1517 1518 1519 1520 1520 1521 1521 1522 1521 1521 1521 1521 1521 1521 1521 1521 1521 1520 1521 1521 1521 1521 1521 1521 1521 1521 1520 1520 1519 1519
1492 1493 1495 1497 1499 1501 1503 1504 1506 1508 1510 1512 1514 1515 1515 1518 1519 1518 1519 1519 1520 1519 1519 1519 1519 1520 1520 1520 1519 1519 1519 1520 1520 1520 1520 1520 1520 1520 1520 1519 1519 1518 1518
1491 1492 1494 1496 1498 1499 1501 1503 1505 1506 1508 1509 1511 1512 1513 1515 1516 1516 1517 1517 1518 1518 1518 1518 1517 1518 1518 1518 1518 1518 1518 1519 1519 1519 1519 1519 1519 1519 1518 1518 1518 1517 1517
1491 1493 1493 1495 1497 1498 1500 1502 1504 1504 1506 1507 1509 1510 1511 1513 1512 1513 1515 1516 1516 1517 1517 1517 1517 1517 1516 1517 1518 1518 1518 1518 1518 1518 1518 1518 1518 1517 1517 1516 1516 1516 1516
1491 1492 1493 1494 1496 1498 1499 1501 1502 1503 1503 1504 1506 1508 1509 1510 1511 1512 1513 1514 1515 1515 1516 1516 1516 1516 1516 1516 1516 1517 1517 1517 1517 1517 1516 1516 1516 1515 1515 1515 1514 1514 1514